GFSNIL_sfc_temp_003.txt.gz
Temp
70 68 67 65 63 61 61 62 63 62 61 61 61 58 56 55 54 52 50 48 47 48
67 65 63 62 61 61 61 62 61 61 60 57 57 53 52 51 49 49 49 48 48 48
64 63 62 61 60 60 60 60 58 57 54 52 52 51 48 49 49 48 49 49 50 49
62 62 61 60 59 57 56 55 52 51 50 49 47 47 46 48 48 47 47 48 49 49
61 61 60 58 56 54 53 52 51 49 48 47 46 46 46 46 47 47 47 47 47 47
59 58 57 55 54 53 53 53 52 52 50 49 49 49 49 49 48 48 47 47 47 47
56 56 55 54 54 54 54 52 52 52 51 50 50 50 50 49 47 47 48 48 47 47
56 56 55 54 53 53 52 52 52 51 50 50 50 48 45 45 43 43 44 45 47 47
55 54 53 52 52 52 51 51 50 49 49 48 49 36 36 36 40 40 40 41 43 45
54 52 51 52 52 50 49 49 48 48 47 46 45 36 35 34 38 37 38 39 41 41
52 51 51 50 50 49 49 48 47 46 45 44 44 36 34 33 36 36 37 38 39 39
52 49 49 49 49 49 48 47 46 45 43 40 39 37 34 33 33 33 33 36 37 37
52 49 48 49 48 48 48 46 45 42 40 37 36 36 34 33 32 29 31 33 35 34
51 50 50 50 49 48 47 44 39 36 37 37 36 36 34 32 31 30 29 30 31 34

GFSNIL_sfc_temp_006.txt.gz
Temp
61 59 58 56 55 53 53 53 54 54 54 52 51 49 49 47 47 45 44 46 45 42
58 57 56 55 55 53 53 55 52 50 50 51 49 47 46 44 44 44 43 42 42 42
57 58 57 56 53 52 52 52 51 49 48 48 48 47 46 44 45 44 43 44 43 42
56 56 55 54 51 50 50 49 49 49 48 47 46 44 43 43 44 44 42 43 44 44
56 55 53 52 50 49 48 49 48 48 47 46 46 44 43 42 43 43 42 43 43 43
54 52 51 51 50 50 48 48 48 47 46 46 45 45 44 43 43 41 40 41 40 41
52 51 50 50 49 48 48 47 46 46 46 45 46 46 43 43 40 39 39 39 38 39
53 52 51 49 48 48 47 47 46 46 44 44 45 42 37 37 36 35 36 36 38 39
53 52 49 48 47 46 46 46 44 43 43 41 46 36 36 34 32 34 33 32 34 36
47 47 47 48 48 47 43 43 42 41 42 40 39 37 36 34 32 31 31 31 32 34
48 48 48 47 46 45 43 41 40 40 40 38 39 37 37 34 30 29 30 30 31 31
46 48 46 45 44 43 42 40 39 40 37 35 35 37 35 32 28 28 28 30 31 32
49 47 46 44 43 42 42 41 37 35 34 36 33 36 36 32 27 25 27 28 30 32
46 46 47 45 44 41 39 36 32 31 32 33 33 32 34 32 27 26 25 26 26 29

GFSNIL_sfc_temp_009.txt.gz
Temp
52 51 54 54 53 49 46 46 46 46 46 46 45 44 43 41 42 44 42 42 41 40
54 55 53 53 47 45 45 50 45 44 44 44 44 46 46 44 43 41 39 39 40 42
54 54 52 46 45 45 45 45 44 44 43 43 43 43 41 39 39 39 39 42 40 39
52 49 47 46 45 45 45 45 45 44 43 43 42 41 40 39 39 39 39 39 40 40
50 49 47 46 46 45 45 45 44 43 42 42 41 40 39 37 37 37 36 36 35 36
51 47 45 45 45 45 44 43 43 42 41 41 41 40 39 37 36 35 35 34 34 34
47 47 45 46 45 45 45 43 42 42 42 41 41 39 37 37 34 33 34 34 33 34
46 46 43 43 45 45 44 43 42 42 40 40 39 38 33 33 30 30 30 31 33 33
45 44 44 45 44 43 42 41 40 39 39 37 39 35 35 33 28 30 29 28 29 30
44 43 43 44 43 42 41 39 37 36 36 35 33 37 37 34 30 28 27 27 28 29
43 42 43 42 42 40 40 37 34 33 33 32 36 37 36 34 28 27 27 28 29 28
42 42 41 39 40 39 36 33 33 33 32 30 30 35 35 31 26 26 26 29 29 29
41 41 39 40 40 36 36 33 32 32 31 33 28 34 35 30 26 22 25 26 28 30
42 41 40 39 37 35 31 30 27 27 28 29 30 28 32 31 25 24 24 24 25 27

GFSNIL_sfc_temp_015.txt.gz
Temp
49 49 49 48 46 44 42 42 42 42 42 42 42 41 39 38 37 37 35 34 34 35
49 49 47 47 43 42 42 44 42 42 43 43 41 41 39 37 36 36 35 34 34 34
47 47 46 44 42 42 42 45 44 44 43 43 42 40 38 37 36 35 35 35 33 33
45 45 44 42 41 42 42 41 42 43 43 42 41 38 37 37 35 34 33 32 32 32
45 44 42 41 41 41 43 42 42 42 42 40 40 38 37 35 35 33 31 31 30 30
42 42 41 40 41 41 40 40 39 40 38 38 39 39 36 34 32 32 31 31 30 30
41 41 40 40 39 39 39 38 38 39 39 39 39 36 34 33 32 30 31 31 30 29
41 40 40 40 39 39 40 39 39 39 39 37 35 35 32 33 31 29 29 30 30 30
41 41 40 39 38 38 38 38 37 38 34 33 36 36 37 35 29 30 29 27 28 28
40 39 38 38 37 36 35 37 34 31 31 31 32 36 36 34 30 27 26 26 26 27
39 38 38 37 36 34 34 32 30 30 31 30 32 34 34 31 25 24 25 26 26 26
38 37 36 35 34 33 32 31 30 31 30 27 27 32 33 30 24 24 24 26 26 27
38 36 35 34 33 32 32 33 32 30 28 30 25 30 31 29 21 16 23 24 26 27
36 35 34 33 32 30 30 29 26 25 26 27 27 25 30 30 21 22 23 23 23 25

GFSNIL_sfc_temp_018.txt.gz
Temp
48 46 46 46 45 44 43 41 41 41 42 42 41 40 40 38 38 38 36 35 34 34
46 45 45 44 43 41 41 43 41 40 42 41 41 41 40 38 37 36 37 35 34 34
44 45 44 42 41 40 40 41 41 43 40 41 41 40 38 38 37 36 34 35 33 32
43 43 42 41 40 40 40 41 41 40 40 41 41 38 37 36 36 34 33 32 32 32
43 42 41 40 40 39 39 40 39 41 42 41 38 36 35 35 35 33 32 31 31 31
41 40 40 40 40 39 38 37 39 41 38 37 36 37 37 34 33 32 31 30 30 30
40 40 39 39 38 37 38 37 40 39 37 36 37 36 34 33 31 31 31 31 30 29
40 39 39 38 38 38 37 38 41 38 36 35 35 35 32 32 31 29 29 29 30 30
39 39 38 38 37 37 36 35 35 36 34 32 35 36 36 33 29 29 28 26 27 28
39 38 37 37 36 35 34 33 31 30 31 30 31 35 35 32 29 27 26 25 25 26
37 36 36 35 35 34 32 31 30 30 30 30 31 33 33 33 27 25 25 26 25 25
37 35 34 33 33 32 31 30 31 31 29 27 27 32 32 30 25 24 24 26 27 27
36 34 33 33 31 31 30 30 30 30 28 30 25 29 31 30 22 17 22 25 26 27
35 34 33 32 31 30 28 29 26 26 26 27 27 25 30 30 22 22 23 23 23 25

GFSNIL_sfc_temp_021.txt.gz
Temp
57 58 58 57 57 56 54 53 53 52 52 52 51 51 51 50 50 49 48 47 47 47
57 56 56 55 54 53 53 53 52 51 51 51 51 51 51 50 49 49 48 47 46 46
55 55 55 54 53 53 53 53 52 51 52 51 50 49 50 49 49 47 47 46 45 45
55 54 54 53 53 53 52 52 50 50 49 49 46 46 47 47 46 45 45 44 43 42
54 54 53 52 52 51 50 49 48 48 48 47 44 47 46 45 45 43 42 42 41 40
53 52 51 50 50 50 49 48 48 47 47 45 46 45 45 43 42 41 41 40 39 39
51 50 50 50 49 49 48 47 47 46 45 43 44 43 42 41 41 41 40 39 38 37
50 49 49 48 48 47 46 46 46 44 43 41 42 42 41 41 39 38 37 37 37 36
48 48 48 48 46 46 46 45 44 42 41 41 41 36 35 36 38 37 35 34 35 35
46 46 46 46 46 45 44 43 41 41 40 38 38 35 34 33 37 35 34 33 33 32
45 45 46 44 44 44 43 42 41 39 38 38 37 33 33 32 35 34 33 33 32 32
44 44 44 43 43 43 42 41 40 39 37 36 36 32 32 33 33 32 31 32 33 32
44 43 42 42 42 42 41 40 39 37 36 32 33 30 31 32 32 29 30 31 32 29
43 42 42 42 42 41 40 38 35 33 34 34 32 33 30 30 31 30 29 29 29 30

GFSNIL_sfc_temp_027.txt.gz
Temp
67 66 68 67 66 64 63 62 62 61 60 60 60 60 57 56 55 54 53 50 51 50
61 63 64 64 64 64 62 63 62 60 59 59 59 58 57 56 54 54 53 51 51 51
60 64 65 64 62 61 61 61 59 58 58 57 57 58 57 55 55 53 51 51 51 51
61 64 64 63 62 62 60 60 59 58 57 57 56 57 54 51 51 50 50 52 51 48
65 65 63 62 62 61 59 59 58 57 56 56 56 54 50 50 48 46 48 48 48 47
64 63 62 62 61 61 59 58 57 57 55 55 54 52 50 48 48 48 48 47 46 46
63 62 61 61 60 59 59 57 56 55 55 54 53 51 50 49 48 47 47 47 46 46
63 61 60 59 59 58 56 56 56 55 54 52 51 50 47 47 46 45 46 47 46 46
60 59 58 57 56 55 55 55 55 54 52 49 50 35 36 37 44 45 45 44 44 44
58 57 55 56 56 55 54 54 52 52 51 48 47 36 35 35 41 43 44 43 42 42
57 55 55 54 54 53 53 52 51 51 49 48 44 35 34 34 40 43 43 42 42 41
56 53 52 52 52 53 52 51 50 50 48 46 43 35 34 33 40 41 40 41 41 40
53 52 51 51 51 51 51 50 50 48 48 41 44 34 34 33 38 36 37 39 40 35
53 52 52 51 50 50 49 48 45 42 44 44 41 39 34 33 35 36 35 35 36 38

GFSNIL_sfc_temp_030.txt.gz
Temp
61 59 59 59 58 56 55 54 54 53 52 52 52 51 50 49 47 47 44 44 43 43
59 59 57 58 58 57 55 57 54 52 52 51 51 50 49 47 47 46 45 43 43 42
58 59 58 58 57 56 55 55 53 52 51 51 50 50 48 46 45 44 43 44 42 43
57 58 58 57 56 55 55 54 53 53 51 51 50 49 47 45 45 44 42 41 43 43
57 58 57 57 56 55 54 54 53 52 51 51 50 48 46 44 44 44 43 42 43 42
56 58 57 57 57 55 54 53 53 52 50 50 49 47 46 45 43 42 42 41 40 40
56 57 57 57 55 54 54 52 51 50 50 49 49 48 47 46 43 41 42 41 40 40
56 58 57 54 53 53 52 52 51 50 49 48 49 47 42 42 39 38 38 39 41 39
57 57 54 53 51 51 50 50 50 49 48 47 49 37 37 37 35 37 37 35 36 37
57 55 53 53 52 51 49 49 48 47 46 44 37 37 37 35 35 34 35 35 34 36
55 54 53 51 49 48 48 47 46 45 45 44 41 36 36 35 32 33 34 35 34 33
54 52 50 48 47 47 46 45 45 45 44 42 35 36 35 33 32 32 33 36 35 35
51 49 47 47 46 45 46 46 45 43 42 38 35 35 35 33 29 29 30 32 33 33
47 46 48 46 45 44 43 41 38 37 38 38 36 33 35 35 30 28 28 28 28 29

GFSNIL_sfc_temp_033.txt.gz
Temp
54 53 53 52 51 53 52 52 51 50 48 48 48 46 46 44 43 43 41 40 40 40
53 53 52 52 52 53 51 54 50 48 48 48 47 47 46 42 41 41 40 39 40 39
52 52 52 52 55 54 52 52 50 50 50 48 47 46 44 42 42 40 39 40 38 38
52 52 54 55 55 53 53 52 50 50 48 48 47 45 43 42 41 40 39 39 38 39
52 54 55 55 54 53 51 50 49 48 48 48 46 44 42 41 41 40 38 38 39 41
54 55 54 54 55 52 49 50 48 48 47 47 46 44 43 42 41 40 39 38 38 37
53 54 55 54 51 51 51 48 47 47 48 47 46 45 45 43 40 38 38 38 37 37
54 55 53 51 51 50 48 48 48 49 48 46 45 45 41 41 37 36 36 36 37 36
53 53 50 50 50 49 47 47 48 46 45 44 46 38 39 37 35 37 35 32 34 34
52 51 49 50 49 47 46 46 44 45 45 43 39 37 38 37 35 34 32 32 32 34
50 48 47 48 45 44 44 43 43 43 43 41 39 37 37 35 32 31 31 32 32 30
47 47 46 44 42 42 42 42 42 43 42 39 35 36 36 34 31 31 31 32 32 32
45 44 42 41 41 42 43 44 43 41 40 39 34 36 36 34 28 28 28 29 30 33
43 43 43 42 42 42 41 38 36 35 35 36 33 32 36 36 29 28 27 27 27 27

GFSNIL_sfc_temp_036.txt.gz
Temp
56 56 52 53 54 52 51 50 51 50 50 48 47 46 44 41 41 40 38 38 38 37
54 53 53 53 53 52 50 52 50 50 47 49 47 45 42 40 41 39 38 37 37 36
52 53 53 53 52 52 52 51 50 50 49 48 47 45 42 41 41 39 37 38 36 36
52 53 53 53 53 52 52 51 51 50 47 47 46 45 41 40 40 39 38 38 38 38
51 51 53 53 52 52 53 52 49 48 46 46 45 43 41 40 41 40 39 38 38 38
52 54 53 52 52 53 50 48 46 45 45 45 44 43 41 41 40 39 40 38 36 36
53 53 52 50 52 50 49 46 47 45 45 45 45 44 44 42 40 39 39 38 37 36
49 52 51 49 49 47 47 47 47 45 45 45 45 45 42 42 38 36 36 36 36 35
51 48 48 47 47 45 47 47 45 45 45 44 45 41 40 38 36 37 36 33 33 33
51 49 47 47 47 45 44 43 42 43 42 41 41 38 39 38 35 34 33 31 31 33
47 46 45 43 43 42 42 42 41 41 41 40 40 37 38 36 33 32 32 31 31 30
45 44 43 42 40 41 40 40 40 41 39 38 37 37 37 35 31 30 31 33 33 31
43 42 40 40 40 39 39 40 39 38 38 38 34 36 37 35 30 29 29 30 30 34
42 42 41 39 39 38 37 36 34 33 33 33 33 32 37 36 30 30 28 28 27 28

GFSNIL_sfc_temp_039.txt.gz
Temp
53 53 52 51 50 51 50 50 50 49 48 48 48 48 46 43 42 39 38 38 37 37
51 50 51 52 52 51 51 51 49 49 48 48 48 48 45 42 40 40 38 37 38 38
52 52 53 53 51 51 51 51 49 49 49 48 48 46 42 39 40 39 38 38 37 37
52 53 53 53 53 52 52 51 50 50 49 48 46 42 40 40 40 40 38 37 37 37
50 51 52 53 53 51 49 48 50 50 48 46 45 42 40 39 40 38 37 37 36 37
50 53 53 51 51 48 48 49 48 46 45 45 43 42 41 39 38 37 37 37 36 37
49 50 50 50 49 48 47 47 46 46 46 45 44 44 43 40 38 37 37 37 36 36
49 51 50 48 45 46 46 46 47 46 45 44 45 46 42 40 37 36 36 36 35 35
50 49 47 46 44 43 44 45 45 43 43 43 44 42 40 39 35 35 35 33 33 33
48 47 45 46 45 44 43 42 40 41 41 40 39 40 40 38 34 33 33 32 32 32
46 44 44 44 43 41 40 39 38 38 39 37 38 39 38 37 32 32 32 31 31 30
44 43 43 42 41 40 39 37 37 38 36 35 35 38 37 35 30 30 30 33 33 31
42 41 40 40 39 37 37 37 36 36 35 36 34 37 37 35 27 28 30 30 31 34
42 41 41 39 37 36 35 34 32 32 32 32 33 33 37 37 30 31 30 30 29 30

GFSNIL_sfc_temp_042.txt.gz
Temp
57 56 55 54 51 50 48 47 47 48 48 46 46 46 46 44 43 41 39 38 37 38
57 55 54 52 51 48 48 50 49 48 47 45 46 47 46 44 43 41 38 38 37 36
52 53 52 51 50 49 50 51 48 47 47 47 47 47 45 43 41 39 38 38 36 36
50 50 51 51 51 51 50 49 47 46 47 47 46 45 44 42 39 39 38 38 36 36
50 51 50 49 50 48 46 47 48 48 47 47 46 45 42 39 42 38 36 36 36 36
48 50 48 47 48 49 48 47 46 47 46 46 45 43 41 41 39 38 37 36 35 35
47 47 48 49 49 48 48 46 46 46 45 45 45 43 43 42 40 37 37 36 35 36
46 47 47 47 45 45 44 44 45 44 43 43 43 44 43 42 38 36 35 35 35 34
47 47 46 43 43 43 44 44 43 43 42 41 43 42 41 39 36 35 34 33 32 34
47 45 45 45 44 42 42 42 41 41 41 39 39 39 39 39 35 33 32 32 33 33
45 44 44 44 42 41 41 40 39 38 37 37 38 38 38 37 33 32 32 32 32 32
44 43 42 41 41 41 39 38 38 37 36 35 35 37 38 36 31 30 31 32 32 32
43 42 41 40 40 39 38 37 35 35 34 35 33 36 37 36 29 29 30 30 33 35
42 42 41 40 37 36 35 33 32 32 32 32 32 32 36 37 30 29 29 30 30 31

GFSNIL_sfc_temp_045.txt.gz
Temp
63 62 62 59 56 55 56 57 56 55 55 54 51 50 46 47 49 52 53 51 51 52
63 62 58 56 57 55 55 53 54 54 54 54 50 48 47 50 52 52 51 51 50 50
63 62 60 58 57 55 54 54 53 54 53 50 49 50 48 52 51 51 50 50 49 49
62 61 60 57 56 54 54 54 54 54 50 49 48 49 47 47 50 49 50 49 49 48
59 57 56 55 55 54 53 52 51 50 48 47 48 51 47 47 46 50 49 49 48 48
58 56 55 54 53 52 51 52 49 49 47 47 47 48 46 47 50 50 49 49 48 48
55 55 54 53 54 53 53 50 50 48 48 47 46 48 48 50 49 48 48 48 47 47
53 54 54 53 50 50 47 47 48 45 46 45 45 45 45 47 48 48 48 47 46 46
53 50 46 45 44 44 44 46 48 45 43 43 43 40 41 42 47 47 46 46 46 46
48 46 45 46 45 45 44 44 43 43 43 41 43 40 40 39 46 46 46 45 46 45
46 45 46 44 43 43 42 42 42 42 43 45 45 39 38 37 45 45 45 44 45 45
48 46 45 43 42 42 42 43 45 45 45 44 45 38 37 39 44 43 43 45 44 43
47 45 45 43 41 41 44 44 45 44 44 41 43 40 37 39 41 39 41 43 43 36
43 42 42 41 43 45 44 43 41 40 42 42 42 42 37 37 40 39 39 40 41 42

GFSNIL_sfc_temp_048.txt.gz
Temp
71 69 71 72 70 65 60 58 61 61 62 64 62 58 52 54 56 57 57 57 58 60
67 67 69 70 66 59 58 59 61 60 59 57 60 57 51 53 49 51 54 53 55 57
68 68 69 68 61 60 60 60 59 56 58 58 54 51 50 49 49 50 51 51 52 56
69 68 68 65 63 64 62 60 56 58 59 55 50 48 46 46 48 49 47 49 52 53
70 67 65 63 62 61 57 56 56 55 51 50 47 46 46 46 45 46 47 50 53 53
64 60 58 57 55 54 53 52 51 50 51 49 47 45 45 46 46 46 50 51 52 53
59 57 56 55 54 52 53 51 50 49 47 46 45 48 47 46 46 48 50 50 51 53
57 57 58 59 59 57 54 52 51 48 44 46 47 46 46 45 45 46 47 50 54 54
60 60 57 54 53 52 49 50 48 50 48 46 47 40 39 41 44 46 51 50 52 54
56 54 53 54 53 51 51 48 47 46 45 45 45 40 40 39 49 50 51 51 52 52
55 54 54 53 52 49 48 46 45 44 46 47 48 41 39 38 48 50 51 51 51 51
55 54 54 50 48 48 44 43 47 50 51 51 52 41 39 39 48 49 49 51 51 51
55 53 51 47 43 42 46 53 53 51 51 46 49 43 39 40 46 45 46 48 49 42
50 47 44 45 50 52 52 50 48 46 48 49 47 48 40 39 42 43 44 44 46 48

GFSNIL_sfc_temp_051.txt.gz
Temp
77 78 76 74 75 73 71 70 66 61 60 62 62 62 58 54 55 57 54 53 50 50
73 75 73 72 73 72 70 63 60 58 61 62 63 56 52 52 53 49 53 48 49 51
75 72 72 71 69 68 65 63 61 61 61 60 55 54 55 50 49 48 46 48 47 48
70 70 67 66 65 63 64 64 62 62 59 55 56 54 48 49 47 46 46 45 46 48
68 67 65 63 62 61 61 58 57 54 53 50 48 47 44 45 47 45 44 47 46 47
64 63 60 57 56 55 54 53 52 51 49 47 46 45 46 45 45 44 45 45 46 49
61 60 58 56 55 53 52 51 50 50 48 46 45 46 46 45 44 45 46 46 47 48
59 60 59 57 56 55 53 52 51 48 47 46 46 46 45 46 46 44 44 45 47 49
64 64 61 59 58 58 56 56 54 52 51 50 51 41 41 43 44 44 44 46 48 53
61 59 58 58 58 57 55 55 52 50 50 50 48 40 40 39 47 49 51 52 52 53
59 58 58 58 55 54 53 53 51 49 46 48 50 41 40 39 49 50 51 52 52 52
59 58 57 55 53 52 50 46 50 51 51 52 54 42 40 41 49 49 49 52 52 52
59 56 51 49 47 46 51 54 56 54 54 44 51 42 40 42 45 43 45 47 49 43
53 52 50 48 52 54 54 53 50 48 50 50 49 48 40 38 41 39 36 38 41 43

GFSNIL_sfc_temp_054.txt.gz
Temp
71 69 66 67 69 67 67 66 65 62 63 60 58 58 57 54 51 50 49 49 47 48
65 64 63 65 67 65 66 64 61 60 58 57 57 56 52 50 50 49 48 47 46 46
66 64 64 63 66 65 61 59 58 57 57 57 56 52 51 49 48 46 45 46 45 45
64 66 67 66 64 64 61 60 59 58 57 55 52 51 48 46 45 44 44 44 44 44
69 67 64 62 60 60 59 59 58 56 53 51 49 46 45 44 44 44 43 44 44 44
63 60 57 56 55 54 53 52 51 50 48 46 46 44 44 45 44 44 44 44 44 45
58 56 55 53 52 51 50 49 48 48 47 46 45 45 45 45 44 44 44 45 45 45
57 56 54 53 52 51 50 49 48 46 45 45 45 46 45 45 44 43 44 44 45 46
58 57 56 54 52 51 50 49 48 47 46 44 48 42 42 43 43 44 43 42 44 45
58 56 54 55 54 51 50 49 49 48 47 47 44 40 41 40 43 42 42 42 44 46
56 55 55 54 51 49 48 48 47 46 45 45 46 40 40 39 40 42 43 43 43 42
57 55 53 52 49 48 47 45 46 48 46 46 45 40 40 39 40 40 39 44 42 42
57 54 48 48 46 45 47 50 51 50 47 44 41 39 37 39 35 33 31 35 38 38
52 50 49 46 47 48 48 47 42 41 42 44 39 36 35 35 31 28 29 30 31 32

GFSNIL_sfc_temp_057.txt.gz
Temp
67 67 65 64 61 62 63 63 63 61 60 59 59 57 56 55 52 50 49 49 47 46
68 65 64 64 64 61 61 60 60 59 59 57 57 56 54 51 49 49 47 46 46 45
65 64 61 61 60 61 58 56 56 55 56 56 55 52 51 49 48 47 46 45 45 45
63 62 60 59 59 60 57 57 56 56 55 54 52 50 48 47 46 46 45 45 45 45
61 60 59 60 59 59 58 57 56 55 54 51 49 48 46 46 45 45 44 44 44 44
63 62 60 56 55 55 54 52 52 51 50 48 47 46 45 45 45 44 45 44 44 44
57 55 53 52 52 51 51 49 49 48 47 46 45 45 45 45 44 44 44 44 44 44
53 53 52 51 50 49 49 48 47 46 45 45 45 45 44 45 43 43 43 43 44 45
54 52 51 50 49 48 47 47 46 46 45 44 45 40 41 42 43 43 43 42 42 41
54 52 51 51 50 48 45 44 43 42 42 41 41 41 41 40 43 42 39 38 39 40
52 51 51 48 45 44 44 43 43 44 45 44 44 40 39 37 37 37 37 37 37 35
52 49 48 46 46 44 44 45 45 45 41 41 41 38 38 38 35 34 32 36 35 35
51 48 45 45 45 45 43 45 45 43 40 38 35 37 37 35 29 28 28 30 33 34
47 46 44 43 42 42 42 41 36 36 36 34 33 34 35 34 28 27 27 27 27 27

GFSNIL_sfc_temp_060.txt.gz
Temp
63 63 62 62 62 61 61 63 63 61 61 59 58 58 57 55 54 53 51 50 49 46
63 62 63 64 61 60 61 60 59 59 60 58 58 58 56 53 50 50 49 49 48 46
64 64 64 61 61 62 59 59 57 57 59 57 57 56 54 51 49 49 47 47 46 46
64 64 61 59 58 59 58 56 55 56 56 56 54 52 50 48 48 46 45 45 46 45
60 60 60 60 59 58 57 56 55 55 54 53 51 49 48 46 46 45 44 45 45 45
61 61 61 60 61 61 56 55 54 54 53 50 48 46 46 46 45 45 45 45 44 44
61 61 60 57 55 54 54 52 51 50 49 47 46 46 46 46 45 44 44 44 44 45
59 56 54 53 51 50 50 49 48 47 46 45 45 46 45 45 43 43 43 43 44 44
54 52 51 50 50 48 47 48 46 46 45 45 45 40 41 43 43 43 43 42 43 42
52 50 49 49 48 46 46 46 45 44 44 43 42 40 41 40 42 42 41 39 36 38
51 50 49 49 47 46 46 44 43 43 42 41 41 40 39 38 37 35 34 34 34 32
51 49 48 46 44 43 42 41 42 42 41 40 39 38 36 36 32 32 32 33 33 31
49 47 45 43 42 43 43 43 43 40 38 38 38 37 36 34 29 28 28 30 30 32
46 45 44 43 44 43 40 38 35 33 32 33 33 33 35 34 29 28 28 27 26 27

GFSNIL_sfc_temp_063.txt.gz
Temp
59 59 59 59 60 59 59 61 59 58 59 60 59 57 57 56 55 54 54 53 51 51
59 59 59 60 57 58 57 59 57 58 58 59 58 58 57 57 56 54 52 52 51 50
59 60 60 60 60 60 59 58 58 57 58 59 58 57 58 57 53 51 49 48 48 47
59 59 60 60 61 60 59 58 57 57 58 58 57 55 55 52 50 49 47 46 47 45
61 61 61 61 62 62 59 58 57 56 56 55 54 53 51 49 48 47 46 45 46 45
60 60 60 61 63 61 60 58 55 55 54 53 51 50 49 48 47 46 46 46 45 45
61 61 61 62 62 61 59 57 56 55 53 50 48 48 47 46 45 45 45 45 45 45
62 62 62 60 58 54 55 55 54 50 47 47 47 47 46 46 44 44 43 43 44 44
63 59 58 56 52 50 49 50 48 47 46 46 46 40 41 43 43 43 43 42 42 40
57 54 52 51 50 48 48 48 46 45 45 45 44 39 40 40 44 43 41 39 39 38
53 51 50 49 47 46 46 45 44 45 45 44 42 39 39 38 39 37 35 34 34 31
51 49 48 46 46 46 44 44 43 44 43 42 40 37 37 37 33 32 31 31 30 30
51 49 46 45 45 44 45 44 43 40 41 39 37 36 36 34 30 28 28 30 30 32
48 47 46 44 43 43 41 38 34 33 35 35 35 34 36 35 29 28 28 28 27 27

GFSNIL_sfc_temp_066.txt.gz
Temp
56 56 56 55 57 54 54 55 56 55 56 56 57 56 55 55 56 56 55 55 54 54
56 55 55 54 54 54 54 55 55 55 55 56 56 56 57 57 56 56 55 54 54 53
55 55 55 54 54 56 55 55 55 55 55 55 55 56 57 57 57 57 55 53 51 50
55 55 55 55 55 56 58 59 58 59 58 58 58 56 56 57 55 53 52 50 50 49
56 57 56 57 58 59 59 61 60 60 59 57 57 57 56 54 51 51 49 47 47 47
57 57 57 59 59 60 60 60 60 59 57 57 55 54 54 53 51 50 48 47 47 46
57 57 59 60 59 59 60 60 59 59 58 55 53 52 50 50 47 47 46 46 46 46
59 59 60 59 59 58 59 60 59 56 52 50 50 49 48 47 46 45 44 44 45 44
60 60 59 60 59 59 58 58 55 53 52 48 48 45 43 45 45 44 43 42 40 40
59 59 59 59 57 54 54 52 50 48 48 46 44 42 42 41 44 43 42 39 38 38
58 58 54 52 52 50 48 48 47 47 45 44 42 40 40 40 40 38 37 37 36 34
56 52 51 49 48 46 46 45 44 44 44 41 39 38 37 37 36 34 33 34 34 33
52 50 49 47 45 45 45 43 42 41 41 38 37 36 36 36 33 31 31 32 32 32
49 47 46 44 44 43 41 38 36 34 35 36 36 35 36 36 33 31 29 28 27 28

GFSNIL_sfc_temp_069.txt.gz
Temp
63 64 65 65 65 64 66 66 66 65 66 66 66 66 65 65 64 64 62 62 61 56
62 62 63 64 63 64 64 65 65 65 65 65 65 66 66 64 64 63 63 62 57 58
62 62 63 63 63 64 64 64 65 65 65 66 66 65 65 64 65 63 62 61 56 59
61 61 61 62 62 62 63 63 62 64 65 65 65 65 64 64 64 61 60 56 56 56
60 60 60 60 61 61 61 63 63 62 63 66 65 64 61 57 56 56 55 54 53 54
59 58 59 60 61 63 63 64 63 62 63 62 59 58 57 57 56 54 55 54 51 50
60 60 61 62 63 63 64 63 64 61 62 63 62 58 57 56 55 53 52 50 50 48
62 62 62 62 63 64 63 64 64 62 62 61 58 55 54 53 52 49 47 47 47 47
63 62 62 62 62 63 63 64 64 61 60 53 53 45 45 48 49 47 46 44 42 42
62 62 62 62 63 63 62 62 62 59 56 53 52 42 43 44 47 45 44 40 38 38
63 62 63 62 61 60 60 57 55 52 50 47 44 41 41 41 44 41 40 38 37 35
63 62 62 61 56 49 49 48 47 47 45 42 41 38 38 39 38 35 34 35 35 35
63 61 54 51 48 47 47 44 44 42 42 39 38 37 37 38 35 32 31 32 32 33
52 50 49 45 45 44 42 40 38 36 36 37 36 36 36 36 34 32 31 31 31 32

GFSNIL_sfc_temp_072.txt.gz
Temp
69 67 67 67 68 67 67 67 68 66 65 66 67 65 67 68 71 70 69 69 69 70
70 70 70 69 70 71 70 71 69 69 68 68 69 71 70 70 70 71 70 69 70 69
69 69 70 71 71 71 71 72 71 71 70 71 72 72 72 72 72 71 71 71 70 68
69 69 69 70 70 71 71 71 71 70 71 72 72 72 71 71 71 70 70 70 67 64
69 70 69 68 70 70 70 71 72 71 71 71 72 71 71 70 70 70 69 67 63 58
67 68 68 68 68 70 70 70 71 71 71 70 70 70 69 70 69 68 65 62 57 56
67 68 68 69 68 69 70 69 69 70 70 69 69 67 67 61 59 58 58 57 57 56
69 69 69 68 68 69 69 69 70 69 70 69 64 61 61 64 62 57 55 53 53 53
70 69 68 68 68 68 68 68 69 69 69 68 66 52 47 58 58 55 52 49 47 47
70 69 69 69 68 68 67 68 67 68 68 68 67 44 45 44 57 53 50 46 43 40
70 69 70 69 68 67 68 67 66 66 66 64 59 43 43 41 49 44 43 42 40 37
72 69 69 68 68 66 64 61 59 58 55 53 47 41 41 42 40 37 36 37 37 36
72 70 69 68 63 54 56 51 46 43 44 40 40 39 39 40 37 33 32 33 33 34
71 69 66 54 53 50 44 42 40 39 38 38 38 37 37 37 35 32 31 30 30 31

GFSNIL_sfc_temp_075.txt.gz
Temp
68 69 70 67 69 68 64 63 63 62 63 63 63 67 66 65 67 63 66 67 69 71
69 69 68 69 69 69 69 70 67 65 63 63 64 66 68 63 64 65 65 65 68 69
72 71 70 70 69 69 69 70 67 66 66 66 66 67 69 69 68 63 63 68 68 69
73 73 73 71 71 72 71 70 70 69 69 70 69 70 69 69 70 68 68 68 69 69
73 73 72 72 73 72 72 72 72 72 71 71 71 71 70 69 70 69 69 70 70 69
72 72 71 72 73 73 73 73 72 72 71 70 70 70 70 70 70 70 70 70 69 69
72 72 72 73 72 72 73 72 72 72 72 71 72 72 72 72 71 70 70 69 68 68
73 73 73 72 72 72 72 73 73 72 71 72 71 71 70 70 67 65 65 62 60 59
74 73 72 72 72 71 71 72 72 71 71 70 71 57 50 57 62 59 58 58 61 58
75 74 72 73 72 71 70 70 69 70 70 70 70 50 47 46 62 60 60 59 54 47
75 74 74 73 72 71 70 69 68 68 69 69 70 45 45 43 61 62 57 52 47 42
76 74 74 72 71 71 70 68 67 67 66 65 65 42 43 45 44 40 37 38 38 38
77 75 73 73 71 70 69 66 61 50 48 43 46 40 41 42 39 34 34 34 34 35
76 74 72 71 72 69 59 49 43 39 39 39 39 38 39 38 35 33 31 31 31 32

GFSNIL_sfc_temp_078.txt.gz
Temp
64 63 63 62 63 62 62 61 63 62 62 62 62 62 61 61 60 60 60 60 60 59
66 65 63 63 63 63 63 65 63 63 61 62 62 62 62 61 61 61 61 61 60 61
66 66 66 66 64 64 63 64 64 63 62 61 62 62 62 62 63 61 62 63 61 61
65 66 66 65 66 65 65 64 64 64 63 62 61 62 62 62 63 62 61 61 61 62
67 67 66 66 66 66 65 66 65 65 63 63 63 62 61 62 64 62 62 62 61 61
68 67 67 67 67 67 66 66 65 66 64 63 63 63 63 63 63 63 63 63 62 62
68 68 68 68 68 68 68 67 66 66 66 65 65 65 65 65 64 64 64 63 63 63
69 69 69 68 68 68 68 68 68 66 66 66 66 66 65 65 64 63 63 63 63 63
70 69 68 68 67 67 66 67 67 66 66 65 67 56 51 59 63 63 63 62 62 56
71 69 68 68 68 67 65 65 65 65 66 65 65 51 49 48 64 63 61 57 57 53
72 70 70 68 67 66 66 65 64 64 65 65 65 49 47 45 59 62 56 54 55 55
72 71 70 68 67 66 65 64 64 64 63 63 63 47 45 45 56 50 39 39 39 39
73 72 70 68 66 66 66 64 64 61 54 50 56 40 41 46 43 36 34 34 34 35
64 70 70 68 66 64 63 51 43 38 37 38 39 39 41 41 38 35 33 32 31 32

GFSNIL_sfc_temp_081.txt.gz
Temp
63 62 62 62 62 61 61 61 63 60 61 62 62 61 60 60 60 59 58 58 58 58
60 60 61 63 63 62 62 62 62 62 58 61 61 61 60 60 58 58 59 59 57 59
62 62 62 62 61 62 62 61 60 61 61 61 61 61 61 61 60 59 59 59 58 58
63 64 64 63 62 63 63 62 61 60 60 60 59 60 59 60 61 60 61 61 59 59
62 64 64 63 63 63 63 63 61 62 61 60 60 59 59 58 61 60 60 60 59 58
61 62 62 62 63 64 64 64 63 62 61 61 60 60 59 60 60 60 60 61 60 59
62 62 62 63 63 63 63 62 62 62 62 61 61 61 61 60 59 60 60 60 60 60
64 64 64 63 63 64 63 64 64 62 62 62 61 61 60 60 59 58 58 59 60 60
64 64 64 64 63 63 63 64 63 62 62 61 63 54 49 56 60 59 58 58 60 60
66 65 65 65 64 63 63 63 62 62 63 62 62 49 48 47 61 60 59 59 59 58
65 65 65 64 64 63 63 62 62 62 62 62 63 48 46 45 58 60 59 59 58 56
56 54 63 63 63 64 63 62 61 62 62 60 61 47 46 45 55 57 58 44 43 51
50 49 49 57 63 64 64 62 62 61 61 56 61 45 45 46 55 46 36 35 35 36
44 44 45 46 54 60 61 60 56 47 40 40 41 41 40 41 44 43 35 33 32 33

GFSNIL_sfc_temp_084.txt.gz
Temp
61 61 61 61 61 59 60 61 62 59 60 62 62 61 61 61 60 59 59 57 57 59
62 62 61 62 62 61 61 63 62 60 59 60 61 62 62 62 61 60 59 58 58 59
62 62 62 62 61 62 62 62 62 61 60 60 60 61 60 61 61 59 60 60 58 58
62 61 61 60 60 62 62 62 62 61 60 60 59 59 59 61 61 59 60 60 59 59
62 61 60 61 61 62 62 62 62 61 60 59 60 59 58 59 61 58 58 59 58 58
59 59 60 61 63 62 62 62 62 61 60 59 59 59 59 59 59 58 58 58 58 58
59 60 61 61 61 62 62 62 62 62 61 60 59 59 59 58 58 59 59 58 59 59
60 61 61 61 61 61 61 61 62 61 61 61 59 59 58 59 57 57 57 58 58 58
60 61 60 60 60 60 61 61 61 60 59 59 60 52 48 54 58 57 56 56 57 58
58 60 62 61 60 60 60 60 60 60 60 59 60 49 47 46 59 58 57 56 56 56
52 52 54 56 61 61 61 59 59 60 60 60 61 48 46 44 56 59 59 57 56 56
48 48 49 48 48 54 61 61 60 61 60 60 61 47 45 45 55 57 57 58 58 57
43 43 44 44 45 48 50 60 62 60 60 56 59 49 45 46 56 54 54 56 41 37
39 39 40 40 42 44 45 46 57 56 42 42 39 39 39 43 53 53 50 43 34 33

GFSNIL_sfc_temp_087.txt.gz
Temp
61 61 58 58 57 56 58 59 57 57 59 61 61 61 60 59 59 59 58 57 58 59
61 61 60 58 58 57 58 60 61 59 59 60 60 60 60 60 59 60 59 59 58 59
59 61 61 61 59 59 58 58 57 57 59 59 60 61 60 60 61 60 60 61 58 58
59 61 61 61 61 61 60 59 58 59 59 58 59 60 60 61 61 59 61 61 59 59
59 60 61 61 61 61 61 61 61 59 59 58 59 58 58 59 60 57 58 60 59 59
58 58 60 60 61 61 61 61 61 61 60 59 58 58 57 57 58 58 58 59 58 58
57 58 60 61 61 60 61 61 61 61 61 60 60 59 59 58 57 58 59 57 58 58
58 59 60 60 60 60 60 60 61 60 60 60 60 60 59 59 57 57 57 58 57 57
59 59 59 58 59 59 59 59 59 59 59 58 59 51 48 54 57 57 56 55 57 57
51 52 53 56 59 58 59 59 59 59 59 59 59 48 46 45 57 57 56 56 56 56
46 47 49 50 49 50 52 58 59 59 59 59 61 49 47 45 55 57 57 57 57 56
41 43 44 43 43 45 46 49 51 58 59 59 59 48 45 45 53 55 56 58 58 57
37 39 38 39 40 41 43 45 47 49 47 40 41 36 37 43 55 53 53 55 55 47
34 35 35 35 37 38 39 41 39 37 34 34 33 34 36 38 42 52 52 51 48 34

GFSNIL_sfc_temp_090.txt.gz
Temp
57 59 60 59 59 59 59 59 59 59 59 60 61 61 60 59 59 57 57 56 56 56
61 57 60 60 59 59 56 58 57 58 58 59 59 61 59 60 58 58 57 57 56 57
60 58 59 58 56 55 55 57 56 56 56 57 58 59 60 60 59 59 59 59 57 56
60 58 60 59 56 56 55 56 56 56 57 57 57 59 57 59 59 57 59 59 58 58
60 58 59 59 59 59 57 56 57 56 56 57 57 57 57 57 58 57 57 58 58 58
57 56 57 59 60 60 60 60 58 58 57 56 57 57 58 58 58 57 57 58 58 58
56 56 56 58 60 60 60 60 60 60 59 59 58 57 57 57 57 57 57 57 58 59
57 57 57 58 59 60 59 58 59 59 58 59 59 59 57 58 57 56 56 57 57 57
52 57 57 58 59 59 59 60 59 58 58 57 58 50 47 54 58 57 57 56 57 58
48 49 49 51 50 50 52 57 58 59 59 58 58 47 46 45 57 59 57 56 56 56
43 44 45 45 45 45 47 48 50 51 56 58 59 42 43 43 53 57 58 57 57 56
39 38 39 40 40 42 43 45 46 45 40 39 41 36 37 39 51 53 55 57 57 57
36 35 35 35 35 39 41 42 42 38 36 34 36 35 36 37 42 48 52 54 54 43
34 35 35 34 35 36 38 38 36 34 33 32 32 33 35 36 38 38 34 33 32 33

GFSNIL_sfc_temp_093.txt.gz
Temp
61 65 66 64 62 63 59 59 59 59 58 57 59 58 58 61 60 60 61 60 62 64
61 64 64 62 62 61 61 60 59 59 59 58 59 59 58 62 59 59 61 60 59 62
62 61 64 64 63 60 60 61 60 58 59 59 59 59 59 62 66 61 59 60 59 62
64 61 62 62 61 60 62 63 64 63 60 59 61 62 61 64 64 59 60 61 59 59
64 61 61 63 62 62 63 64 64 64 64 64 64 65 64 62 61 60 61 62 62 60
61 60 61 64 62 61 63 63 63 64 62 62 63 63 62 61 61 61 61 62 62 64
59 59 62 64 65 63 63 62 60 60 62 63 63 63 63 62 61 61 62 64 65 66
60 61 62 63 64 64 64 64 64 63 62 62 62 63 62 63 63 62 61 61 62 62
51 51 51 52 56 59 59 60 61 62 63 63 64 50 46 55 62 62 62 62 63 63
46 46 46 48 49 48 48 51 52 54 56 58 51 37 39 42 57 58 58 58 59 59
41 42 44 44 44 44 46 47 47 43 42 44 39 36 37 36 46 54 58 58 58 58
40 40 41 41 41 42 44 44 41 39 37 38 36 35 36 37 45 49 52 55 49 39
39 38 37 38 38 41 42 40 39 36 35 34 35 35 35 37 43 43 39 36 35 33
38 37 37 37 37 38 39 38 35 34 33 33 33 35 34 34 37 36 33 31 30 31

GFSNIL_sfc_temp_096.txt.gz
Temp
72 65 72 69 67 63 62 60 60 59 58 59 59 59 59 59 59 60 62 68 69 70
68 64 69 71 71 69 65 61 59 59 58 58 57 58 58 58 60 63 61 64 68 69
64 65 69 71 67 68 68 63 61 60 58 57 56 57 59 58 58 61 61 62 66 68
64 64 66 69 67 67 64 64 62 61 59 57 57 57 57 58 59 59 65 65 61 63
64 64 64 65 67 67 64 65 63 63 59 59 58 58 59 60 62 62 67 67 61 61
65 64 63 63 68 67 67 66 66 67 63 62 61 60 61 63 63 66 67 63 61 63
63 63 63 65 68 64 65 67 67 67 67 66 66 66 66 66 66 66 64 63 62 62
61 63 63 66 67 66 64 64 65 65 64 65 65 64 63 64 63 62 61 62 63 63
49 51 51 52 52 56 57 59 62 63 64 64 50 37 38 47 64 64 63 64 67 68
44 45 45 47 48 48 49 50 47 47 43 40 39 36 37 37 53 60 63 64 64 63
41 41 43 43 44 46 45 43 41 41 42 39 37 36 36 36 47 50 53 50 43 45
39 38 40 40 42 43 42 40 38 38 37 37 35 35 36 41 48 43 39 37 36 37
40 40 39 40 42 42 41 39 38 36 36 35 36 34 35 42 44 38 36 33 33 32
38 37 39 40 41 42 41 40 38 37 37 37 35 35 34 36 40 36 33 32 31 32

GFSNIL_sfc_temp_099.txt.gz
Temp
78 77 76 73 69 66 61 61 60 60 59 58 60 61 61 59 59 59 59 60 61 62
76 75 75 72 70 67 66 63 62 60 58 58 59 59 59 59 59 59 59 60 62 63
75 73 74 71 67 67 69 64 62 60 59 58 58 59 59 59 60 58 60 59 64 65
73 72 72 70 70 67 67 65 62 60 59 57 57 57 56 57 58 58 60 62 64 63
67 70 67 67 70 69 68 68 66 63 60 58 57 57 56 56 58 57 57 60 59 63
64 66 65 66 67 67 66 66 67 66 62 60 59 59 58 58 59 61 61 60 64 67
63 64 64 67 68 67 68 67 67 67 66 63 63 62 61 60 61 64 66 66 67 70
62 63 64 63 66 68 68 67 67 67 66 66 64 54 53 61 62 63 62 66 67 63
49 49 50 52 53 61 59 58 58 54 60 47 45 37 38 42 60 63 62 61 62 63
44 45 45 47 47 46 45 45 45 43 41 39 39 36 37 37 54 61 59 52 54 57
41 41 43 43 43 41 41 39 40 39 39 37 36 36 36 36 48 43 39 38 39 40
38 38 41 40 40 39 37 36 36 37 37 35 34 35 37 44 42 37 35 34 34 36
36 37 37 38 38 38 36 35 35 33 34 35 34 34 36 42 40 35 33 33 33 33
34 37 39 39 39 39 38 38 37 35 35 35 34 34 35 37 39 36 33 32 31 32

GFSNIL_sfc_temp_102.txt.gz
Temp
74 73 71 69 68 64 61 60 60 60 60 60 60 61 60 61 61 61 61 61 61 60
72 72 70 68 67 64 62 61 61 60 59 59 60 60 59 58 58 58 58 59 59 59
71 70 70 68 65 65 62 62 60 58 59 58 58 58 59 58 58 58 58 58 58 58
66 68 68 67 66 65 63 62 61 59 58 58 58 58 58 58 58 58 58 58 58 59
64 67 67 66 65 64 63 62 61 60 58 58 58 58 57 57 58 57 57 57 58 59
61 63 64 65 66 64 64 63 61 60 58 57 57 56 57 57 56 56 57 57 57 58
59 61 62 64 65 64 64 63 63 61 60 59 58 58 57 57 57 57 58 58 58 59
55 60 61 62 64 64 64 63 63 62 62 60 56 48 52 58 57 58 58 59 60 59
46 48 50 51 54 53 52 52 50 51 47 44 42 37 38 43 57 58 59 60 60 62
42 43 44 44 44 44 44 43 41 41 40 37 37 37 38 38 52 47 45 45 47 48
39 40 40 40 39 38 39 39 38 37 37 36 36 36 38 40 42 38 37 37 38 38
38 37 37 36 36 36 36 35 35 36 35 34 34 36 38 39 37 35 33 34 34 35
36 36 35 33 34 35 33 33 34 33 33 33 33 35 38 38 36 33 32 32 32 33
33 33 33 33 34 33 33 33 33 32 32 31 32 33 34 35 34 32 31 30 30 32

GFSNIL_sfc_temp_105.txt.gz
Temp
68 67 67 66 62 61 60 60 60 60 59 60 61 61 61 61 60 61 61 60 60 59
64 69 66 65 62 60 60 59 60 60 59 59 60 60 60 60 60 60 60 60 60 59
62 64 66 66 61 60 59 60 59 59 59 59 59 60 59 59 60 60 60 60 59 59
61 62 65 64 61 59 59 60 60 59 59 58 58 58 59 58 58 59 59 59 59 58
60 62 64 63 62 60 59 61 60 59 58 58 57 57 57 57 58 58 57 57 57 57
60 61 63 63 62 61 60 60 60 59 58 58 58 57 58 58 57 58 58 58 57 58
58 59 61 62 62 62 61 60 60 59 59 58 58 58 58 57 57 57 57 57 58 58
48 53 55 56 61 61 61 61 60 60 59 58 56 51 56 57 56 56 56 56 57 57
43 44 45 46 47 50 49 48 46 46 46 43 42 37 39 47 56 56 56 55 56 57
40 40 41 41 40 40 41 40 39 38 38 37 38 37 39 39 50 47 45 44 48 46
39 39 39 39 38 36 37 36 35 35 36 37 38 37 38 37 38 36 36 36 37 37
34 36 37 36 37 37 35 34 33 34 33 34 36 37 37 37 35 33 33 34 34 34
33 33 33 33 34 35 34 32 33 32 32 33 33 35 37 37 35 32 32 32 33 33
32 32 32 32 33 33 33 33 32 31 31 31 32 32 34 35 34 32 31 30 31 32

GFSNIL_sfc_temp_108.txt.gz
Temp
66 64 64 63 63 62 61 61 61 61 60 60 60 61 61 61 61 61 60 60 60 59
66 63 64 64 62 61 61 60 59 60 59 59 59 60 60 60 60 60 60 60 60 59
65 64 64 63 61 61 60 59 58 58 58 59 59 59 60 60 60 60 60 60 60 59
61 60 61 62 61 61 60 59 58 58 58 58 58 59 59 59 60 59 59 60 59 59
60 59 59 60 60 61 59 59 58 58 59 58 58 58 58 57 58 59 59 58 59 58
50 59 59 60 59 60 59 59 59 59 58 58 57 57 57 58 57 58 59 59 58 58
44 48 57 60 60 60 60 60 59 59 59 58 58 57 58 57 57 57 57 57 58 58
42 44 46 51 60 60 59 59 60 58 58 57 56 50 54 57 57 56 56 57 57 57
40 41 41 42 44 46 46 46 46 45 44 44 43 38 39 44 56 56 55 55 55 56
37 37 38 39 38 38 39 41 39 39 40 39 39 38 39 41 48 45 44 44 48 45
36 35 36 35 34 34 35 35 35 35 37 37 37 36 37 37 38 36 36 36 38 39
34 34 34 34 33 33 33 32 32 34 34 34 35 36 36 36 35 34 33 34 35 36
31 31 32 32 32 32 32 32 32 32 32 34 33 35 36 35 34 32 32 32 33 34
30 30 30 32 32 32 32 31 30 30 31 31 32 33 35 34 33 32 31 31 31 32

GFSNIL_sfc_temp_111.txt.gz
Temp
57 64 63 62 63 63 63 64 62 62 63 63 62 62 61 61 61 62 61 61 61 60
53 63 65 62 62 62 62 61 61 62 61 61 61 61 60 60 60 60 61 60 61 60
54 60 65 65 61 61 61 60 60 60 60 59 59 59 59 59 59 59 60 60 59 59
56 61 64 63 62 61 61 59 59 59 59 59 58 58 58 59 59 59 59 59 59 59
48 51 60 61 61 60 60 60 60 59 58 58 58 58 58 57 58 58 58 59 59 58
44 46 48 53 60 60 60 59 59 59 58 58 58 57 58 58 57 58 59 58 59 58
41 43 44 46 49 59 60 59 59 59 59 58 58 58 58 57 57 57 58 59 59 59
40 41 41 41 41 44 58 59 59 58 58 58 58 54 57 57 57 57 56 56 57 58
39 39 39 39 39 38 39 43 48 48 48 46 44 38 39 46 57 56 56 56 56 56
37 37 37 37 37 36 35 35 36 38 40 39 38 39 40 41 50 48 46 47 52 46
34 35 36 35 34 34 34 33 33 33 35 36 36 36 37 37 39 37 36 37 39 40
32 33 33 33 33 33 33 32 32 32 33 34 34 36 36 36 35 33 33 34 35 36
29 29 31 31 31 32 32 31 32 31 32 32 33 34 35 35 34 32 32 32 33 34
27 28 28 30 30 30 30 30 30 30 30 31 32 32 34 34 32 32 31 31 31 32

GFSNIL_sfc_temp_114.txt.gz
Temp
54 55 63 63 63 62 63 63 65 64 63 64 63 63 63 63 62 62 61 61 61 61
52 54 57 63 62 61 61 62 60 63 62 63 63 63 62 62 60 60 61 61 61 61
50 54 55 60 62 62 61 60 60 61 62 62 62 62 61 61 61 60 60 60 60 60
47 49 54 59 63 62 62 60 60 61 61 61 61 60 60 59 59 58 58 59 59 59
45 46 47 49 50 62 61 61 61 60 60 59 59 59 58 58 58 58 58 59 59 59
42 43 43 44 46 48 60 60 60 60 59 59 58 58 58 58 57 58 59 59 59 58
39 40 41 42 43 44 46 54 59 59 59 59 59 58 58 57 57 58 58 59 59 59
38 39 40 40 41 42 41 42 44 54 58 58 58 55 57 57 57 57 57 57 58 58
37 37 37 38 38 39 39 39 38 38 41 41 42 38 40 51 57 56 56 56 56 57
35 35 35 36 36 35 36 37 36 36 36 36 36 37 37 40 52 52 48 48 52 49
32 33 34 34 33 33 33 33 34 34 35 35 35 35 36 36 38 37 36 37 39 42
30 30 31 31 31 32 32 31 32 32 33 33 33 35 35 35 35 33 33 34 37 38
28 28 28 29 29 31 32 31 31 31 31 32 31 33 34 35 33 32 32 33 33 34
26 27 27 28 29 30 30 31 31 30 31 30 31 32 33 33 31 31 31 31 31 32

GFSNIL_sfc_temp_117.txt.gz
Temp
55 55 57 66 68 68 67 66 67 65 66 66 66 66 66 66 65 65 64 64 63 64
52 53 56 57 63 66 68 67 66 66 65 65 65 65 64 64 64 63 63 63 63 63
50 51 53 57 57 62 64 66 65 65 64 64 64 64 64 64 64 62 62 62 62 62
46 48 49 51 56 55 63 63 63 63 63 63 62 63 62 63 63 62 61 61 61 62
43 45 46 46 48 51 52 63 63 62 62 62 63 63 62 61 61 61 60 60 60 60
40 41 42 43 45 46 48 51 59 62 61 61 61 61 61 61 60 60 60 60 60 61
39 39 40 41 43 43 45 44 46 47 57 60 59 59 59 60 60 60 60 62 61 64
38 39 39 39 40 41 41 42 43 42 42 43 42 41 42 51 58 59 59 60 61 61
37 37 36 37 37 38 38 39 39 39 40 38 40 37 38 40 51 58 58 57 59 60
35 35 35 35 36 35 35 36 36 36 37 36 36 36 37 39 40 44 49 50 52 54
32 34 35 34 34 33 33 33 33 33 34 34 34 35 36 36 36 35 35 36 38 41
30 31 32 32 32 33 33 32 32 32 32 32 32 35 35 37 36 35 33 33 34 36
30 29 29 30 31 32 33 32 33 32 32 32 32 33 34 34 34 33 32 32 32 33
29 30 30 31 31 31 32 32 32 32 32 32 32 32 33 32 30 30 28 29 30 31

GFSNIL_sfc_temp_120.txt.gz
Temp
57 57 59 62 65 73 70 69 70 69 69 70 70 70 72 70 71 71 70 69 68 69
54 54 55 57 59 59 69 69 70 67 66 66 67 68 69 70 67 69 69 70 69 67
51 52 53 55 57 59 59 64 67 66 65 67 66 66 65 67 66 65 66 66 66 66
47 48 49 50 52 54 56 56 64 65 65 65 65 63 62 63 64 64 64 65 65 65
43 44 45 45 47 50 52 53 57 64 65 64 64 64 62 62 63 63 62 64 63 64
41 41 42 42 44 45 47 49 50 50 53 61 62 63 63 62 62 62 63 63 63 64
40 41 41 41 42 43 44 45 45 45 45 45 45 44 45 51 60 62 62 62 63 63
40 40 41 40 40 41 41 42 42 43 41 41 41 40 40 44 49 57 60 60 60 61
41 41 38 39 39 39 38 39 39 39 38 37 38 36 37 40 49 47 53 57 59 60
39 39 39 38 37 35 36 36 36 36 37 36 35 36 37 37 41 39 38 40 42 45
36 37 38 37 37 36 35 34 33 33 35 35 35 35 35 37 40 37 36 35 36 37
33 34 35 34 34 35 35 34 33 33 33 33 32 34 34 36 37 35 33 34 35 35
32 31 32 33 32 34 35 33 35 33 32 33 32 34 34 34 34 31 30 32 32 33
32 32 32 32 33 32 33 33 32 32 32 32 32 32 33 33 33 33 30 29 29 30

GFSNIL_sfc_temp_123.txt.gz
Temp
55 60 62 59 60 66 69 69 72 73 73 72 71 70 69 69 68 69 67 69 71 74
52 56 56 58 59 60 61 64 70 71 69 69 68 68 69 67 71 70 69 70 71 71
49 51 51 51 53 54 57 59 59 68 70 67 66 67 67 67 68 67 67 68 70 70
46 47 47 47 48 51 55 54 55 61 66 66 66 64 64 64 65 65 64 64 66 66
44 43 43 43 45 48 50 51 50 52 52 59 64 65 63 62 63 64 65 65 64 65
41 41 41 41 42 44 44 45 46 46 45 45 45 45 46 48 59 62 63 64 63 64
40 40 41 42 41 41 41 41 41 43 42 42 41 41 42 45 48 51 58 62 62 63
44 43 42 41 40 39 39 40 40 41 39 39 39 39 39 43 48 50 50 53 61 62
42 41 40 39 39 39 38 38 38 38 38 37 38 36 38 40 42 42 41 41 45 47
40 40 40 41 39 37 36 36 35 35 36 35 36 36 36 38 38 37 36 36 37 40
37 37 38 37 38 37 37 35 35 34 34 34 34 35 36 36 37 35 34 34 34 34
35 35 35 35 35 36 36 35 34 34 34 34 34 35 34 38 35 33 32 33 33 33
34 33 33 34 34 36 36 34 36 34 33 34 33 34 34 35 35 33 32 32 31 32
34 34 34 34 35 34 34 34 34 33 34 33 33 33 34 34 32 32 32 32 32 32

GFSNIL_sfc_temp_126.txt.gz
Temp
53 56 57 56 61 65 66 68 70 68 69 68 68 67 67 67 67 67 66 64 65 66
48 50 52 52 53 57 57 59 59 65 67 68 68 67 66 66 65 65 65 65 65 65
45 47 48 50 49 50 51 52 54 55 62 65 65 65 66 65 66 65 65 66 65 65
42 43 43 44 45 46 47 48 49 50 50 51 55 60 63 64 65 65 65 65 64 64
41 41 41 40 42 43 43 43 44 45 46 46 45 46 48 50 58 61 62 64 63 61
36 38 38 39 40 40 41 41 41 41 41 41 42 42 44 46 48 52 54 60 62 62
36 36 38 38 38 38 39 39 40 39 39 39 39 40 42 46 48 48 49 49 50 51
36 38 36 36 36 36 36 37 38 37 36 37 38 38 39 43 42 41 41 43 43 45
37 37 38 37 37 37 36 36 36 36 35 34 36 36 37 38 39 38 37 36 38 42
37 37 37 38 37 36 35 35 34 35 35 33 34 35 37 37 36 35 34 33 34 36
36 36 36 37 36 35 36 34 33 33 34 33 34 35 36 37 36 34 33 32 33 33
35 35 35 34 34 35 35 34 33 33 33 32 32 35 35 35 35 34 33 33 33 32
34 33 32 33 33 35 35 33 34 33 32 33 31 34 35 34 33 31 32 32 32 33
34 33 33 33 33 32 33 32 32 32 33 32 31 31 33 34 31 31 31 31 31 32